Weather History for Carrollton, GA

Change the Weather History Date:

Tuesday, March 25, 2014

  Actual Average Record
Temperature  
Mean Temperature 40 °F -  
Max Temperature 48 °F 66 °F 82 °F (1954)
Min Temperature 32 °F 39 °F 24 °F (1979)
Degree Days  
Heating Degree Days 24    
Moisture  
Dew Point 27 °F    
Average Humidity 54    
Maximum Humidity 87    
Minimum Humidity 37    
Precipitation  
Precipitation 0.00 in - - ()
Sea Level Pressure  
Sea Level Pressure 30.02 in    
Wind  
Wind Speed 7 mph (NW)    
Max Wind Speed 23 mph    
Max Gust Speed 32 mph    
Visibility 10 miles    
Events      
Averages and records for this station are not official NWS values.
T = Trace of Precipitation, MM = Missing Value Source: NWS Daily Summary

Daily Weather History Graph

Daily Weather History Graph

Search for Another Location

Airport:

Trip Planner

Search our weather history database for the weather conditions in past years. The results will help you decide how hot, cold, wet, or windy it might be!

Date:

Astronomy

Mar. 25, 2014 Rise Set
Actual Time 7:37 AM EDT 7:55 PM EDT
Civil Twilight 7:12 AM EDT 8:20 PM EDT
Nautical Twilight 6:43 AM EDT 8:50 PM EDT
Astronomical Twilight 6:14 AM EDT 9:19 PM EDT
Moon 3:44 AM EDT (3/25) 2:39 PM EDT (3/25)
Length of Visible Light 13h 08m
Length of Day
12h 18m
Waning Crescent, 32% of the Moon is Illuminated
Mar 25
Waning Crescent
Mar 30
New
Apr 7
First Quarter
Apr 15
Full
Apr 22
Last Quarter

Hourly Weather History & Observations

Time (EDT) Temp. Windchill Dew Point Humidity Pressure Visibility Wind Dir Wind Speed Gust Speed Precip Events Conditions
12:13 AM 46.4 °F - 37.4 °F 71% 29.98 in 10.0 mi Calm Calm - N/A   Overcast
12:33 AM 46.4 °F - 37.4 °F 71% 29.96 in 10.0 mi Calm Calm - N/A   Mostly Cloudy
12:53 AM 46.4 °F - 37.4 °F 71% 29.96 in 10.0 mi Calm Calm - N/A   Mostly Cloudy
1:13 AM 46.4 °F - 37.4 °F 71% 29.96 in 10.0 mi Calm Calm - N/A   Overcast
1:33 AM 46.4 °F - 37.4 °F 71% 29.96 in 10.0 mi Calm Calm - N/A   Overcast
1:53 AM 46.4 °F - 37.4 °F 71% 29.95 in 10.0 mi Calm Calm - N/A   Overcast
2:13 AM 46.4 °F - 39.2 °F 76% 29.95 in 10.0 mi Calm Calm - N/A   Overcast
2:33 AM 46.4 °F - 37.4 °F 71% 29.95 in 10.0 mi Calm Calm - N/A   Overcast
2:53 AM 44.6 °F - 41.0 °F 87% 29.93 in 10.0 mi Calm Calm - N/A   Overcast
3:13 AM 46.4 °F - 39.2 °F 76% 29.92 in 10.0 mi Calm Calm - N/A   Overcast
3:33 AM 46.4 °F 44.3 °F 37.4 °F 71% 29.92 in 10.0 mi WNW 4.6 mph - N/A   Overcast
3:53 AM 46.4 °F 43.5 °F 35.6 °F 66% 29.92 in 10.0 mi NW 5.8 mph - N/A   Overcast
4:13 AM 46.4 °F 42.9 °F 32.0 °F 57% 29.91 in 10.0 mi NNW 6.9 mph - N/A   Overcast
4:33 AM 46.4 °F 42.9 °F 32.0 °F 57% 29.91 in 10.0 mi NW 6.9 mph - N/A   Overcast
4:53 AM 44.6 °F 42.2 °F 32.0 °F 61% 29.91 in 10.0 mi WNW 4.6 mph - N/A   Mostly Cloudy
5:13 AM 44.6 °F 43.1 °F 32.0 °F 61% 29.91 in 10.0 mi WNW 3.5 mph - N/A   Overcast
5:33 AM 44.6 °F 41.4 °F 30.2 °F 57% 29.91 in 10.0 mi WNW 5.8 mph - N/A   Overcast
5:53 AM 44.6 °F 41.4 °F 30.2 °F 57% 29.91 in 10.0 mi WNW 5.8 mph - N/A   Scattered Clouds
6:13 AM 42.8 °F 38.0 °F 30.2 °F 61% 29.92 in 10.0 mi NW 8.1 mph - N/A   Clear
6:33 AM 42.8 °F 37.5 °F 30.2 °F 61% 29.92 in 10.0 mi NW 9.2 mph - N/A   Clear
6:53 AM 42.8 °F 37.5 °F 30.2 °F 61% 29.92 in 10.0 mi NW 9.2 mph - N/A   Clear
7:13 AM 42.8 °F 37.5 °F 28.4 °F 57% 29.93 in 10.0 mi NW 9.2 mph - N/A   Clear
7:33 AM 41.0 °F 35.8 °F 28.4 °F 61% 29.94 in 10.0 mi NW 8.1 mph - N/A   Clear
7:53 AM 41.0 °F 36.4 °F 28.4 °F 61% 29.95 in 10.0 mi NW 6.9 mph - N/A   Clear
8:13 AM 41.0 °F 35.2 °F 28.4 °F 61% 29.96 in 10.0 mi NW 9.2 mph - N/A   Clear
8:33 AM 42.8 °F 38.0 °F 28.4 °F 57% 29.97 in 10.0 mi NW 8.1 mph - N/A   Clear
8:53 AM 42.8 °F 37.0 °F 26.6 °F 53% 29.98 in 10.0 mi NW 10.4 mph 20.7 mph N/A   Clear
9:13 AM 42.8 °F 36.2 °F 26.6 °F 53% 29.99 in 10.0 mi NW 12.7 mph - N/A   Clear
9:33 AM 44.6 °F 39.2 °F 24.8 °F 46% 29.99 in 10.0 mi NW 10.4 mph 17.3 mph N/A   Clear
9:53 AM 44.6 °F 39.2 °F 23.0 °F 43% 29.99 in 10.0 mi NW 10.4 mph 16.1 mph N/A   Clear
10:13 AM 46.4 °F 42.4 °F 23.0 °F 40% 29.99 in 10.0 mi NW 8.1 mph 17.3 mph N/A   Clear
10:33 AM 46.4 °F 40.7 °F 23.0 °F 40% 30.00 in 10.0 mi NNW 12.7 mph 25.3 mph N/A   Clear
10:53 AM 46.4 °F 40.7 °F 23.0 °F 40% 30.00 in 10.0 mi NW 12.7 mph 23.0 mph N/A   Clear
11:13 AM 48.2 °F - 23.0 °F 37% 30.01 in 10.0 mi WNW 13.8 mph 25.3 mph N/A   Clear
11:33 AM 48.2 °F - 24.8 °F 40% 30.02 in 10.0 mi NNW 23.0 mph 32.2 mph N/A   Clear
11:53 AM 48.2 °F - 24.8 °F 40% 30.02 in 10.0 mi NNW 23.0 mph 29.9 mph N/A   Scattered Clouds
12:13 PM 46.4 °F 39.8 °F 23.0 °F 40% 30.03 in 10.0 mi NW 16.1 mph 28.8 mph N/A   Mostly Cloudy
12:33 PM 46.4 °F 38.7 °F 24.8 °F 43% 30.03 in 10.0 mi North 20.7 mph 27.6 mph N/A   Overcast
12:53 PM 46.4 °F 39.8 °F 23.0 °F 40% 30.03 in 10.0 mi NW 16.1 mph 28.8 mph N/A   Scattered Clouds
1:13 PM 46.4 °F 39.2 °F 23.0 °F 40% 30.03 in 10.0 mi WNW 18.4 mph 29.9 mph N/A   Mostly Cloudy
1:33 PM 44.6 °F 37.8 °F 24.8 °F 46% 30.04 in 10.0 mi NNW 15.0 mph 29.9 mph N/A   Overcast
1:53 PM 46.4 °F 39.0 °F 23.0 °F 40% 30.04 in 10.0 mi NNW 19.6 mph 29.9 mph N/A   Mostly Cloudy
2:13 PM 46.4 °F 40.4 °F 23.0 °F 40% 30.04 in 10.0 mi NW 13.8 mph 24.2 mph N/A   Mostly Cloudy
2:33 PM 46.4 °F 40.4 °F 23.0 °F 40% 30.04 in 10.0 mi NNW 13.8 mph 27.6 mph N/A   Mostly Cloudy
2:53 PM 44.6 °F 38.1 °F 23.0 °F 43% 30.04 in 10.0 mi WNW 13.8 mph 26.5 mph N/A   Overcast
3:13 PM 44.6 °F 36.9 °F 23.0 °F 43% 30.04 in 10.0 mi NW 18.4 mph 29.9 mph N/A   Overcast
3:33 PM 44.6 °F 36.6 °F 23.0 °F 43% 30.05 in 10.0 mi NW 19.6 mph 28.8 mph N/A   Overcast
3:53 PM 44.6 °F 36.9 °F 23.0 °F 43% 30.05 in 10.0 mi NNW 18.4 mph 28.8 mph N/A   Overcast
4:13 PM 44.6 °F 37.4 °F 21.2 °F 39% 30.06 in 10.0 mi NW 16.1 mph 32.2 mph N/A   Overcast
4:33 PM 44.6 °F 38.1 °F 21.2 °F 39% 30.05 in 10.0 mi NW 13.8 mph 26.5 mph N/A   Mostly Cloudy
4:53 PM 44.6 °F 36.6 °F 21.2 °F 39% 30.06 in 10.0 mi NNW 19.6 mph 25.3 mph N/A   Overcast
5:13 PM 44.6 °F 38.4 °F 21.2 °F 39% 30.07 in 10.0 mi NW 12.7 mph 21.9 mph N/A   Overcast
5:33 PM 44.6 °F 36.4 °F 23.0 °F 43% 30.07 in 10.0 mi NNW 20.7 mph 28.8 mph N/A   Overcast
5:53 PM 42.8 °F 34.3 °F 21.2 °F 42% 30.07 in 10.0 mi NNW 19.6 mph 27.6 mph N/A   Mostly Cloudy
6:13 PM 44.6 °F 37.4 °F 21.2 °F 39% 30.08 in 10.0 mi NW 16.1 mph 27.6 mph N/A   Scattered Clouds
6:33 PM 41.0 °F 32.2 °F 21.2 °F 45% 30.09 in 10.0 mi NNW 18.4 mph 31.1 mph N/A   Overcast
6:53 PM 41.0 °F 32.5 °F 24.8 °F 53% 30.10 in 10.0 mi NNW 17.3 mph 26.5 mph N/A   Scattered Clouds
7:13 PM 41.0 °F 32.2 °F 21.2 °F 45% 30.11 in 10.0 mi NNW 18.4 mph 27.6 mph N/A   Clear
7:33 PM 41.0 °F 35.2 °F 21.2 °F 45% 30.12 in 10.0 mi NNW 9.2 mph 27.6 mph N/A   Clear
7:52 PM 39.2 °F 31.2 °F 21.2 °F 49% 30.12 in 10.0 mi NNW 13.8 mph 20.7 mph N/A   Clear
8:13 PM 37.4 °F 29.3 °F 21.2 °F 52% 30.13 in 10.0 mi NNW 12.7 mph 21.9 mph N/A   Scattered Clouds
8:33 PM 37.4 °F 30.8 °F 23.0 °F 56% 30.14 in 10.0 mi North 9.2 mph - N/A   Clear
8:53 PM 35.6 °F 26.6 °F 23.0 °F 60% 30.14 in 10.0 mi NNW 13.8 mph - N/A   Clear
9:13 PM 35.6 °F 28.6 °F 23.0 °F 60% 30.15 in 10.0 mi North 9.2 mph - N/A   Clear
9:33 PM 35.6 °F 29.9 °F 23.0 °F 60% 30.16 in 10.0 mi NNW 6.9 mph - N/A   Clear
9:53 PM 35.6 °F 30.7 °F 23.0 °F 60% 30.17 in 10.0 mi NNW 5.8 mph - N/A   Clear
10:13 PM 35.6 °F - 23.0 °F 60% 30.18 in 10.0 mi Calm Calm - N/A   Clear
10:33 PM 33.8 °F - 23.0 °F 65% 30.19 in 10.0 mi Calm Calm - N/A   Clear
10:53 PM 33.8 °F - 24.8 °F 70% 30.19 in 10.0 mi Calm Calm - N/A   Clear
11:13 PM 33.8 °F 28.6 °F 24.8 °F 70% 30.19 in 10.0 mi NW 5.8 mph - N/A   Clear
11:33 PM 33.8 °F 28.6 °F 24.8 °F 70% 30.19 in 10.0 mi NNW 5.8 mph - N/A   Clear
11:53 PM 32.0 °F 28.7 °F 23.0 °F 69% 30.19 in 10.0 mi North 3.5 mph - N/A   Clear